TimeCST,TemperatureF,Dew PointF,Humidity,Sea Level PressureIn,VisibilityMPH,Wind Direction,Wind SpeedMPH,Gust SpeedMPH,PrecipitationIn,Events,Conditions,WindDirDegrees,DateUTC
12:14 AM,37.4,33.8,87,30.01,10.0,NNW,9.2,-,N/A,,Overcast,330,2012-11-07 06:14:00
12:33 AM,37.4,33.8,87,30.01,10.0,NW,6.9,-,N/A,,Overcast,320,2012-11-07 06:33:00
12:53 AM,37.4,35.6,93,30.02,10.0,NW,4.6,-,N/A,,Overcast,320,2012-11-07 06:53:00
1:13 AM,37.4,35.6,93,30.02,10.0,NW,3.5,-,N/A,,Overcast,320,2012-11-07 07:13:00
1:33 AM,37.4,35.6,93,30.02,10.0,Calm,Calm,-,N/A,,Overcast,0,2012-11-07 07:33:00
1:53 AM,37.4,35.6,93,30.03,10.0,Calm,Calm,-,N/A,,Overcast,0,2012-11-07 07:53:00
2:13 AM,37.4,33.8,87,30.04,10.0,NW,4.6,-,N/A,,Overcast,310,2012-11-07 08:13:00
2:53 AM,37.4,35.6,93,30.04,10.0,WNW,6.9,-,N/A,,Overcast,300,2012-11-07 08:53:00
3:13 AM,37.4,35.6,93,30.04,10.0,NW,8.1,-,N/A,,Overcast,310,2012-11-07 09:13:00
3:33 AM,37.4,35.6,93,30.05,10.0,WNW,8.1,-,N/A,,Overcast,290,2012-11-07 09:33:00
3:54 AM,37.4,35.6,93,30.05,10.0,WNW,6.9,-,N/A,,Overcast,290,2012-11-07 09:54:00
4:13 AM,37.4,35.6,93,30.05,10.0,WNW,5.8,-,N/A,,Overcast,290,2012-11-07 10:13:00
4:33 AM,37.4,35.6,93,30.05,10.0,WNW,5.8,-,N/A,,Overcast,290,2012-11-07 10:33:00
4:54 AM,37.4,35.6,93,30.06,10.0,WNW,5.8,-,N/A,,Overcast,300,2012-11-07 10:54:00
5:13 AM,37.4,35.6,93,30.06,10.0,WNW,4.6,-,N/A,,Overcast,290,2012-11-07 11:13:00
5:33 AM,35.6,35.6,100,30.07,10.0,West,3.5,-,N/A,,Overcast,270,2012-11-07 11:33:00
5:54 AM,35.6,35.6,100,30.07,10.0,West,5.8,-,N/A,,Overcast,260,2012-11-07 11:54:00
6:13 AM,35.6,35.6,100,30.07,10.0,West,5.8,-,N/A,,Overcast,260,2012-11-07 12:13:00
6:33 AM,33.8,33.8,100,30.07,7.0,West,6.9,-,N/A,,Mostly Cloudy,260,2012-11-07 12:33:00
6:54 AM,33.8,32.0,93,30.07,4.0,West,6.9,-,N/A,,Scattered Clouds,270,2012-11-07 12:54:00
7:13 AM,32.0,30.2,93,30.07,2.0,West,4.6,-,N/A,,Clear,280,2012-11-07 13:13:00
7:33 AM,32.0,32.0,100,30.08,1.0,West,6.9,-,N/A,,Mostly Cloudy,260,2012-11-07 13:33:00
7:54 AM,32.0,32.0,100,30.08,0.2,West,4.6,-,N/A,Fog,Fog,270,2012-11-07 13:54:00
8:13 AM,32.0,32.0,100,30.09,0.8,West,5.8,-,N/A,,Overcast,270,2012-11-07 14:13:00
8:33 AM,33.8,33.8,100,30.09,2.0,West,3.5,-,N/A,,Clear,260,2012-11-07 14:33:00
8:53 AM,35.6,35.6,100,30.08,7.0,Calm,Calm,-,N/A,,Clear,0,2012-11-07 14:53:00
9:13 AM,37.4,37.4,100,30.08,10.0,Calm,Calm,-,N/A,,Clear,0,2012-11-07 15:13:00
9:33 AM,39.2,35.6,87,30.09,10.0,Calm,Calm,-,N/A,,Clear,0,2012-11-07 15:33:00
9:53 AM,41.0,35.6,81,30.09,10.0,West,3.5,-,N/A,,Clear,260,2012-11-07 15:53:00
10:13 AM,42.8,35.6,76,30.10,10.0,WSW,4.6,-,N/A,,Clear,250,2012-11-07 16:13:00
10:33 AM,44.6,35.6,71,30.09,10.0,West,3.5,-,N/A,,Clear,270,2012-11-07 16:33:00
10:53 AM,44.6,35.6,71,30.09,10.0,WSW,5.8,-,N/A,,Clear,250,2012-11-07 16:53:00
11:13 AM,44.6,35.6,71,30.09,10.0,WSW,5.8,-,N/A,,Clear,240,2012-11-07 17:13:00
11:34 AM,42.8,35.6,76,30.08,10.0,WSW,6.9,-,N/A,,Scattered Clouds,250,2012-11-07 17:34:00
11:53 AM,44.6,35.6,71,30.08,10.0,South,6.9,-,N/A,,Scattered Clouds,190,2012-11-07 17:53:00
12:13 PM,44.6,35.6,71,30.06,10.0,SW,6.9,-,N/A,,Mostly Cloudy,220,2012-11-07 18:13:00
12:34 PM,44.6,33.8,66,30.05,10.0,SW,6.9,-,N/A,,Scattered Clouds,220,2012-11-07 18:34:00
12:53 PM,46.4,33.8,62,30.05,10.0,SSW,8.1,-,N/A,,Mostly Cloudy,210,2012-11-07 18:53:00
1:13 PM,46.4,33.8,62,30.04,10.0,SSW,5.8,9.2,N/A,,Mostly Cloudy,200,2012-11-07 19:13:00
1:34 PM,44.6,33.8,66,30.03,10.0,SSW,6.9,-,N/A,,Scattered Clouds,210,2012-11-07 19:34:00
1:53 PM,46.4,33.8,62,30.03,10.0,SSW,6.9,-,N/A,,Scattered Clouds,200,2012-11-07 19:53:00
2:13 PM,46.4,33.8,62,30.03,10.0,SSW,10.4,-,N/A,,Scattered Clouds,210,2012-11-07 20:13:00
2:34 PM,46.4,33.8,62,30.02,10.0,South,9.2,-,N/A,,Scattered Clouds,170,2012-11-07 20:34:00
2:53 PM,46.4,33.8,62,30.01,10.0,South,10.4,-,N/A,,Scattered Clouds,170,2012-11-07 20:53:00
3:13 PM,46.4,33.8,62,30.01,10.0,South,12.7,-,N/A,,Scattered Clouds,190,2012-11-07 21:13:00
3:38 PM,44.6,33.8,66,30.01,10.0,SSE,12.7,-,N/A,,Clear,160,2012-11-07 21:38:00
3:53 PM,44.6,35.6,71,30.00,10.0,SSE,10.4,-,N/A,,Clear,160,2012-11-07 21:53:00
4:13 PM,44.6,33.8,66,30.01,10.0,South,10.4,-,N/A,,Clear,170,2012-11-07 22:13:00
4:34 PM,42.8,33.8,70,30.00,10.0,South,8.1,-,N/A,,Clear,170,2012-11-07 22:34:00
4:53 PM,41.0,33.8,76,29.99,10.0,SSE,6.9,-,N/A,,Clear,150,2012-11-07 22:53:00
5:13 PM,41.0,33.8,76,29.99,10.0,SE,8.1,-,N/A,,Clear,130,2012-11-07 23:13:00
5:34 PM,39.2,33.8,81,29.99,10.0,SE,8.1,-,N/A,,Clear,130,2012-11-07 23:34:00
5:53 PM,39.2,33.8,81,29.99,10.0,SE,8.1,-,N/A,,Clear,130,2012-11-07 23:53:00
6:13 PM,39.2,33.8,81,29.99,10.0,ESE,6.9,-,N/A,,Clear,120,2012-11-08 00:13:00
6:33 PM,37.4,33.8,87,29.99,10.0,SE,6.9,-,N/A,,Clear,130,2012-11-08 00:33:00
6:53 PM,37.4,33.8,87,29.99,10.0,SE,6.9,-,N/A,,Clear,130,2012-11-08 00:53:00
7:13 PM,37.4,33.8,87,29.98,10.0,SE,9.2,-,N/A,,Clear,130,2012-11-08 01:13:00
7:33 PM,37.4,33.8,87,29.97,10.0,SE,11.5,-,N/A,,Clear,140,2012-11-08 01:33:00
7:53 PM,37.4,33.8,87,29.98,10.0,SE,12.7,-,N/A,,Clear,140,2012-11-08 01:53:00
8:13 PM,37.4,33.8,87,29.97,10.0,SE,15.0,-,N/A,,Clear,140,2012-11-08 02:13:00
8:33 PM,37.4,33.8,87,29.97,10.0,SE,13.8,-,N/A,,Clear,140,2012-11-08 02:33:00
8:53 PM,37.4,33.8,87,29.97,10.0,SE,13.8,-,N/A,,Clear,140,2012-11-08 02:53:00
9:13 PM,37.4,33.8,87,29.96,10.0,SE,13.8,-,N/A,,Clear,140,2012-11-08 03:13:00
9:33 PM,37.4,33.8,87,29.96,10.0,SSE,15.0,-,N/A,,Clear,150,2012-11-08 03:33:00
9:53 PM,37.4,33.8,87,29.97,10.0,SSE,12.7,-,N/A,,Clear,150,2012-11-08 03:53:00
10:14 PM,39.2,33.8,81,29.97,10.0,SSE,11.5,19.6,N/A,,Clear,150,2012-11-08 04:14:00
10:33 PM,37.4,33.8,87,29.97,10.0,SSE,13.8,18.4,N/A,,Clear,150,2012-11-08 04:33:00
10:53 PM,37.4,33.8,87,29.96,10.0,SSE,19.6,25.3,N/A,,Clear,160,2012-11-08 04:53:00
11:14 PM,39.2,33.8,81,29.95,10.0,SSE,16.1,24.2,N/A,,Clear,160,2012-11-08 05:14:00
11:33 PM,39.2,33.8,81,29.95,10.0,SSE,16.1,23.0,N/A,,Clear,150,2012-11-08 05:33:00
11:53 PM,37.4,33.8,87,29.94,10.0,SSE,17.3,-,N/A,,Clear,150,2012-11-08 05:53:00